Date,TemperatureHighF,TemperatureAvgF,TemperatureLowF,DewpointHighF,DewpointAvgF,DewpointLowF,HumidityHigh,HumidityAvg,HumidityLow,PressureMaxIn,PressureMinIn,WindSpeedMaxMPH,WindSpeedAvgMPH,GustSpeedMaxMPH,PrecipitationSumIn
2013-1-1,23.0,15.7,4.5,18.4,10.3,1.0,90,79,61,30.27,30.12,12,8,15,0.00
2013-1-2,24.6,14.1,2.2,16.4,9.0,-1.0,89,80,67,30.27,30.16,16,9,21,0.00
2013-1-3,30.5,23.0,12.3,26.9,19.1,9.2,91,85,75,30.34,30.15,19,10,24,0.00
2013-1-4,30.1,19.5,7.8,25.3,15.9,5.0,90,86,81,30.33,30.26,20,11,23,0.00
2013-1-5,35.2,28.0,17.6,32.4,25.2,14.7,94,89,81,30.28,30.00,20,11,23,0.00
2013-1-6,35.1,25.6,15.3,32.3,22.3,12.4,92,87,80,30.36,29.98,23,13,30,0.00
2013-1-7,37.3,26.7,13.7,31.2,22.9,11.2,92,86,77,30.38,30.14,23,12,28,0.00
2013-1-8,43.5,33.9,26.0,36.8,29.6,23.2,90,84,74,30.18,30.07,17,11,21,0.00
2013-1-9,49.4,38.7,28.6,39.1,31.8,24.8,89,77,49,30.50,30.06,22,10,29,0.00
2013-1-10,47.6,36.3,28.0,46.2,32.3,23.6,95,86,71,30.49,29.81,19,10,23,0.44
2013-1-11,56.1,51.0,46.7,51.7,48.4,45.1,95,91,84,29.81,29.68,22,15,30,0.13
2013-1-12,51.7,41.9,28.9,48.5,38.7,26.9,93,88,79,29.96,29.72,21,12,25,0.03
2013-1-13,28.9,22.4,13.2,27.0,19.7,9.5,93,89,82,30.32,29.88,10,7,14,0.00
2013-1-14,24.2,17.1,11.8,18.5,13.3,8.9,89,85,76,30.49,30.31,6,2,10,0.00
2013-1-15,28.1,20.1,11.4,22.5,16.5,8.4,93,86,76,30.46,30.14,7,2,9,0.00
2013-1-16,35.1,26.6,14.4,30.2,22.8,12.0,93,85,76,30.15,29.91,26,10,32,0.00
2013-1-17,34.2,28.2,20.2,30.7,23.4,16.0,92,82,66,30.43,30.08,19,9,26,0.00
2013-1-18,42.0,31.7,17.8,33.3,25.7,14.4,89,79,68,30.46,30.00,29,17,36,0.01
2013-1-19,50.6,40.6,30.4,40.7,33.8,20.8,85,77,66,30.03,29.76,36,20,45,0.00
2013-1-20,30.4,18.9,14.3,20.2,10.9,6.8,84,71,59,30.32,30.03,34,15,41,0.00
2013-1-22,13.6,8.0,0.3,2.6,-1.2,-4.0,83,66,52,30.46,30.35,16,10,23,0.00
2013-1-23,29.9,18.1,9.7,15.5,8.2,1.9,79,65,53,30.40,30.12,23,8,31,0.00
2013-1-24,23.1,15.2,5.6,9.4,4.3,-2.0,73,62,46,30.65,30.36,23,10,28,0.00
2013-1-25,34.9,24.7,18.8,20.8,15.6,6.7,87,69,53,30.35,30.01,19,10,25,0.00
2013-1-26,30.7,20.7,9.1,17.3,11.1,5.5,86,68,46,30.41,30.21,11,5,14,0.00
2013-1-27,42.8,30.7,21.2,41.5,26.6,16.4,95,85,72,30.38,29.92,20,12,25,0.16
2013-1-28,56.4,49.3,42.5,55.0,47.6,40.9,95,94,92,29.93,29.77,21,10,26,0.02
2013-1-29,63.3,58.3,50.9,60.2,56.0,49.4,95,92,89,29.78,29.35,26,17,37,1.73
2013-1-30,50.9,36.2,20.0,49.5,33.9,15.7,96,91,83,29.73,29.22,34,19,42,0.17
2013-1-31,21.3,14.3,3.7,18.6,9.3,-1.3,91,80,74,30.27,29.72,30,23,40,0.00
2013-2-1,20.5,17.0,3.2,16.8,9.8,-1.9,89,73,66,30.35,30.21,22,14,33,0.00
2013-2-2,27.0,19.5,11.2,23.9,16.3,7.9,92,87,79,30.23,30.03,18,10,23,0.00
2013-2-3,27.1,21.1,12.9,20.9,16.9,9.2,93,84,68,30.11,29.99,26,10,31,0.00
2013-2-4,34.4,27.7,19.2,28.9,23.4,16.7,91,84,76,30.04,29.81,17,8,22,0.00
2013-2-5,36.9,28.2,18.0,32.4,25.3,15.7,93,89,82,30.10,29.82,21,8,24,0.00
2013-2-6,42.6,34.5,27.7,34.3,30.0,24.2,91,84,70,30.22,30.08,12,6,16,0.00
2013-2-7,38.3,34.4,32.5,36.4,32.4,30.2,95,92,89,30.08,29.83,20,8,28,0.36
2013-2-8,32.4,27.8,23.8,30.3,24.9,21.0,92,89,86,30.39,29.97,22,11,30,0.00
2013-2-9,34.2,31.0,27.4,31.3,27.1,23.7,90,85,82,30.39,30.05,14,9,19,0.00
2013-2-10,48.6,41.3,34.0,46.3,38.5,30.0,94,90,75,30.06,29.52,33,19,40,0.41
2013-2-11,43.5,34.0,30.1,37.0,27.7,24.8,85,78,71,30.08,29.58,34,22,44,0.00
2013-2-12,36.0,29.7,27.0,29.3,26.0,24.2,93,86,75,30.14,29.93,17,6,23,0.00
2013-2-13,44.7,33.7,25.0,36.8,29.7,23.0,93,85,67,29.93,29.74,16,7,19,0.00
2013-2-14,40.1,36.0,32.7,34.4,32.1,30.0,92,86,75,29.99,29.70,24,12,33,0.00
2013-2-15,32.7,28.6,21.6,30.6,22.1,15.4,93,77,56,30.21,29.99,19,13,25,0.00
2013-2-16,26.3,19.0,12.6,16.8,12.0,7.2,81,74,63,30.22,30.13,19,10,24,0.00
2013-2-17,34.4,22.7,9.6,24.1,15.0,6.0,86,73,58,30.24,29.97,19,7,24,0.00
2013-2-18,54.7,40.4,25.3,47.7,34.9,21.5,94,81,69,29.97,29.44,35,22,45,0.20
2013-2-19,25.0,18.7,12.5,21.8,13.1,7.7,88,79,69,30.25,29.68,36,26,50,0.00
2013-2-20,22.7,15.0,6.5,17.0,9.7,1.5,90,79,70,30.41,30.25,15,9,21,0.00
2013-2-21,28.6,22.7,13.9,24.6,19.2,11.0,93,87,79,30.39,29.89,29,13,35,0.00
2013-2-22,32.7,29.6,24.4,31.3,27.2,21.3,95,91,81,29.97,29.79,24,13,29,0.01
2013-2-23,28.4,24.1,18.3,23.0,20.0,15.6,91,84,76,30.01,29.95,17,8,21,0.00
2013-2-24,38.7,27.2,16.1,29.7,22.4,13.4,91,83,67,30.15,30.00,7,2,7,0.00
2013-2-25,42.2,33.8,25.3,34.7,29.5,23.0,92,84,70,30.15,29.85,22,9,25,0.00
2013-2-26,34.1,32.6,31.7,31.2,30.3,28.4,95,92,80,29.86,29.44,32,14,41,0.16
2013-2-27,32.1,30.9,29.9,30.8,29.4,28.4,95,94,93,29.75,29.53,19,13,22,0.00
2013-2-28,34.4,32.2,29.9,32.0,30.3,27.3,95,93,87,30.06,29.75,20,12,24,0.01
2013-3-1,30.1,27.3,24.7,27.5,24.1,21.1,92,88,84,30.19,30.04,22,13,28,0.00
2013-3-2,28.4,23.6,15.3,22.6,19.2,11.7,88,83,70,30.21,30.16,19,11,23,0.00
2013-3-3,31.5,22.6,12.9,20.6,14.7,10.0,89,73,48,30.19,30.10,6,3,8,0.00
2013-3-4,33.9,30.1,25.0,30.0,25.7,19.5,89,83,78,30.12,29.91,22,13,28,0.00
2013-3-5,33.7,30.9,26.9,31.9,29.2,25.4,95,93,86,30.00,29.77,27,13,32,0.09
2013-3-6,30.2,27.3,24.9,26.5,24.4,22.6,94,89,84,30.33,29.99,24,17,27,0.00
2013-3-7,35.9,29.3,25.1,28.0,24.9,22.8,91,84,69,30.43,30.33,11,4,12,0.02
2013-3-8,39.6,31.8,22.7,34.0,27.9,20.3,92,85,78,30.47,30.27,14,7,17,0.00
2013-3-9,44.9,40.2,33.6,40.5,36.2,30.1,89,85,81,30.27,29.80,18,12,24,0.03
2013-3-10,53.5,47.5,41.9,50.0,44.8,39.7,94,90,84,29.82,29.55,18,9,23,0.73
2013-3-11,47.0,36.2,30.9,45.1,33.8,27.5,94,91,87,29.87,29.57,24,16,32,0.02
2013-3-12,38.9,31.2,26.6,32.6,26.6,21.4,92,83,70,30.09,29.87,31,17,37,0.00
2013-3-13,33.1,27.8,23.6,25.3,22.0,18.8,89,79,62,30.36,30.09,24,15,30,0.00
2013-3-14,39.4,31.5,23.9,32.6,27.1,21.1,92,84,72,30.36,30.05,17,8,20,0.00
2013-3-15,52.4,40.6,30.2,45.0,36.8,28.1,92,87,71,30.06,29.64,16,6,20,0.00
2013-3-16,41.5,34.2,29.8,39.2,31.3,26.4,95,89,79,30.10,29.63,20,10,26,0.00
2013-3-17,34.9,31.8,29.3,29.2,27.0,23.9,90,82,76,30.17,29.89,19,13,26,0.00
2013-3-18,37.8,31.1,24.2,35.3,27.8,16.9,94,88,72,29.91,29.65,35,17,43,0.02
2013-3-19,38.2,27.9,19.5,25.4,18.8,11.9,81,69,47,30.14,29.88,29,18,38,0.00
2013-3-20,28.0,22.3,15.6,22.0,13.1,6.7,83,68,53,30.17,30.06,30,22,37,0.00
2013-3-21,33.9,23.6,11.6,19.3,14.1,8.2,87,68,49,30.11,30.02,14,5,17,0.00
2013-3-22,43.6,31.2,17.7,25.2,20.4,15.5,92,67,41,30.09,30.00,7,2,11,0.00
2013-3-23,44.3,35.1,27.2,29.6,25.5,21.7,85,69,48,30.11,29.96,20,8,22,0.00
2013-3-24,31.5,30.0,28.2,29.4,27.8,26.2,95,91,82,29.97,29.60,26,17,32,0.00
2013-3-25,35.4,30.7,26.4,30.3,27.3,24.2,94,87,79,30.12,29.71,20,14,25,0.00
2013-3-26,37.7,33.9,30.3,30.3,27.8,21.9,90,79,57,30.29,30.11,17,10,21,0.00
2013-3-27,43.2,35.1,29.2,30.6,27.3,22.7,89,74,52,30.35,30.28,13,6,16,0.00
2013-3-28,50.7,38.2,27.5,36.1,29.8,24.0,88,73,51,30.37,30.27,7,4,11,0.00
2013-3-29,56.7,44.8,34.8,38.1,33.9,30.9,88,67,46,30.31,30.20,9,2,16,0.00
2013-3-30,55.7,45.8,32.5,44.8,38.3,29.2,90,76,55,30.21,29.84,20,8,25,0.00
2013-3-31,60.5,48.7,37.1,47.0,39.8,27.6,92,73,45,29.92,29.73,27,14,36,0.00
2013-4-1,41.3,34.4,25.9,28.2,21.9,17.9,79,61,41,30.22,29.92,19,13,27,0.00
2013-4-2,45.1,32.7,20.5,22.8,18.4,13.8,88,59,29,30.33,30.22,19,8,24,0.00
2013-4-3,48.6,35.6,21.4,22.6,18.8,13.3,84,54,27,30.45,30.30,13,6,18,0.00
2013-4-4,58.9,42.9,25.9,28.2,23.8,19.9,80,51,24,30.31,29.99,11,5,15,0.00
2013-4-5,55.7,44.0,31.8,33.5,26.8,19.6,87,55,25,30.17,30.01,21,10,23,0.00
2013-4-6,72.3,54.9,35.4,48.9,36.6,24.3,83,53,29,30.09,29.64,35,20,44,0.01
2013-4-7,71.0,55.2,42.7,47.0,42.7,39.8,91,66,36,29.92,29.69,13,7,17,0.00
2013-4-8,74.1,62.6,48.1,57.6,54.0,40.1,90,75,51,29.87,29.61,26,13,33,0.11
2013-4-9,78.6,65.2,48.9,62.6,56.8,45.3,91,76,53,29.87,29.74,31,14,37,0.01
2013-4-10,50.4,44.6,40.4,48.4,42.5,38.3,95,92,87,29.89,29.67,29,14,49,0.90
2013-4-11,51.2,45.2,38.7,48.0,42.9,34.3,95,92,83,29.81,29.58,32,12,38,0.22
2013-4-12,41.8,39.0,36.6,38.5,35.1,32.3,91,86,79,29.90,29.60,24,14,31,0.00
2013-4-13,50.1,41.8,35.2,39.9,34.4,27.4,91,76,57,29.98,29.89,21,9,30,0.00
2013-4-14,72.7,55.9,42.7,54.5,45.6,37.5,86,70,46,29.97,29.60,26,14,34,0.00
2013-4-15,61.8,54.6,45.4,56.9,50.4,43.2,93,86,62,29.97,29.66,24,12,30,0.55
2013-4-16,51.7,46.7,41.9,46.1,41.6,38.7,94,83,67,30.20,29.90,18,8,22,0.55
2013-4-17,58.1,48.0,42.9,55.5,44.6,37.4,94,88,79,30.21,29.72,29,15,37,0.09
2013-4-18,63.9,55.4,40.1,60.5,52.6,34.6,94,90,80,29.75,29.40,33,16,44,1.08
2013-4-19,40.0,37.2,34.7,35.7,31.9,29.8,89,81,76,29.99,29.56,26,20,33,0.00
2013-4-20,46.3,37.9,31.2,32.9,29.8,26.1,90,74,47,30.39,29.99,11,5,16,0.00
2013-4-21,54.2,43.2,33.1,41.1,34.7,28.8,87,73,54,30.48,30.29,18,11,24,0.00
2013-4-22,66.1,50.0,38.2,46.7,38.8,33.9,85,68,39,30.29,30.00,14,8,18,0.00
2013-4-23,57.5,48.2,37.3,52.1,44.5,35.2,93,87,77,30.01,29.85,23,11,25,0.40
2013-4-24,48.9,41.0,34.7,36.9,34.2,29.6,93,78,56,30.17,29.91,20,11,28,0.06
2013-4-25,53.2,44.3,36.1,37.0,32.4,25.6,87,65,39,30.31,30.11,30,13,35,0.00
2013-4-26,64.5,51.2,36.8,50.2,41.7,32.7,88,71,54,30.34,30.24,22,11,28,0.00
2013-4-27,65.4,53.4,42.6,51.4,46.1,40.1,93,78,46,30.28,29.95,16,7,31,0.19
2013-4-28,62.5,55.4,51.6,57.0,52.6,49.3,94,90,79,29.95,29.81,9,5,12,0.05
2013-4-29,72.5,60.0,45.6,60.3,53.8,43.8,94,81,62,29.90,29.71,21,11,28,0.00
2013-4-30,83.9,70.4,59.0,63.6,59.1,55.4,89,70,42,29.90,29.73,21,15,29,0.00
2013-5-1,83.8,71.5,56.4,59.7,56.2,51.2,90,62,36,30.06,29.90,16,7,19,0.00
2013-5-2,71.1,61.3,46.8,57.3,53.4,44.3,92,76,59,30.15,30.02,14,7,21,0.50
2013-5-3,68.5,53.1,42.2,62.2,49.9,39.8,93,89,76,30.06,29.81,22,13,24,0.21
2013-5-4,65.3,59.7,54.4,56.9,54.7,51.8,91,84,66,29.98,29.84,19,10,23,0.06
2013-5-5,73.2,59.8,51.6,57.7,52.0,46.3,93,77,40,29.99,29.88,21,8,26,0.01
2013-5-6,74.7,63.3,51.3,54.2,48.6,41.8,90,62,33,29.97,29.89,15,7,23,0.00
2013-5-7,78.8,65.7,49.4,52.0,45.5,35.2,81,51,27,30.00,29.91,12,5,17,0.00
2013-5-8,81.6,68.5,51.5,56.7,48.8,44.2,83,53,29,30.00,29.90,9,3,15,0.00
2013-5-9,68.7,62.9,59.1,61.8,57.6,46.6,91,83,47,29.93,29.76,18,7,21,0.33
2013-5-10,61.1,53.9,48.4,58.1,51.1,45.6,93,90,88,29.95,29.75,16,9,20,0.00
2013-5-11,61.2,52.1,40.5,53.5,40.6,28.8,91,68,31,30.06,29.86,33,15,43,0.00
2013-5-12,57.1,46.7,34.2,33.6,29.5,23.6,86,54,28,30.14,30.05,22,12,31,0.00
2013-5-13,68.3,55.3,36.6,43.2,32.4,23.9,81,46,23,30.18,30.00,14,7,22,0.00
2013-5-14,92.1,72.9,53.7,62.8,53.3,39.8,71,52,29,30.00,29.64,25,15,30,0.00
2013-5-15,84.5,75.3,67.1,63.0,56.0,44.4,73,52,25,29.79,29.66,23,14,28,0.01
2013-5-16,85.1,72.2,59.3,61.3,52.8,43.5,74,53,26,29.89,29.76,14,6,16,0.00
2013-5-17,80.9,70.7,60.6,67.5,60.6,51.2,89,72,37,29.95,29.87,20,7,24,0.02
2013-5-18,80.5,70.7,60.7,64.4,61.4,57.7,90,74,52,29.99,29.86,12,6,16,0.00
2013-5-19,89.8,76.5,60.2,71.4,64.9,57.3,91,70,46,29.89,29.67,22,10,29,0.00
2013-5-20,89.9,77.7,65.6,69.4,62.8,54.4,90,63,31,29.78,29.63,33,19,46,0.22
2013-5-21,79.7,71.1,62.5,69.5,64.7,59.5,90,81,65,29.71,29.60,22,15,27,0.21
2013-5-22,71.5,65.9,60.3,65.7,60.6,55.9,91,84,62,29.74,29.56,18,9,22,0.93
2013-5-23,60.3,55.7,44.3,56.5,51.8,39.8,92,87,77,30.24,29.74,19,9,23,0.01
2013-5-24,65.0,51.1,38.5,46.5,40.2,35.6,91,69,37,30.40,30.24,11,6,18,0.00
2013-5-25,59.5,51.5,46.0,50.1,42.1,33.0,90,72,39,30.37,30.20,12,6,13,0.22
2013-5-26,63.4,56.2,50.3,58.0,51.6,45.2,92,84,77,30.25,30.03,22,11,27,0.79
2013-5-27,71.3,63.2,57.7,66.1,60.1,55.1,93,90,79,30.07,29.75,19,8,25,0.82
2013-5-28,76.8,69.8,64.0,71.2,65.9,61.0,90,88,80,29.81,29.72,27,15,31,0.08
2013-5-29,83.9,72.9,62.2,72.7,65.0,-99.9,93,79,61,29.90,29.78,26,1,32,0.41
2013-5-30,82.8,73.8,63.5,73.6,67.6,60.5,91,81,67,29.88,29.73,28,15,61,0.65
2013-5-31,75.1,69.1,63.2,70.3,65.5,60.5,93,88,78,29.83,29.63,32,13,35,1.78
2013-6-1,73.7,67.0,62.1,68.0,63.0,58.9,91,87,74,29.75,29.58,27,16,32,0.19
2013-6-2,62.2,59.3,52.4,59.1,55.5,49.3,91,87,79,30.02,29.73,17,10,20,0.00
2013-6-3,65.5,57.9,48.3,52.2,49.2,45.4,92,74,55,30.10,30.00,8,4,14,0.00
2013-6-4,57.8,55.0,50.9,51.3,49.2,47.5,89,81,77,30.10,30.05,4,2,5,0.00
2013-6-5,77.3,71.5,59.7,59.7,57.6,54.8,84,62,49,30.00,29.82,9,6,13,0.00
2013-6-6,74.2,64.5,57.7,60.6,55.2,49.9,88,72,59,29.85,29.78,16,6,20,0.00
2013-6-7,73.4,63.2,52.5,57.5,52.7,49.0,88,70,50,29.89,29.82,11,6,17,0.00
2013-6-8,76.6,61.9,51.5,54.3,47.6,42.7,84,62,40,29.94,29.88,7,2,10,0.00
2013-6-11,86.1,77.6,60.7,71.6,65.6,57.7,90,68,44,29.89,29.75,16,6,20,0.00
2013-6-12,95.9,83.7,70.4,73.3,70.7,66.6,89,67,39,29.82,29.50,25,12,33,0.00
2013-6-13,83.0,72.5,62.5,72.1,59.5,53.3,90,66,41,29.95,29.57,18,10,27,0.02
2013-6-14,81.9,69.0,54.5,57.6,54.3,50.9,88,62,37,30.07,29.92,8,4,11,0.00
2013-6-15,80.5,76.0,67.7,68.7,65.5,61.3,90,71,56,29.94,29.82,35,14,45,0.10
2013-6-16,82.3,73.2,66.3,70.8,67.0,63.3,90,82,64,29.91,29.82,19,8,21,0.01
2013-6-17,88.8,77.6,63.7,68.6,60.4,50.2,91,61,28,29.89,29.81,10,4,15,0.00
2013-6-18,79.5,71.2,61.4,62.9,59.3,51.1,85,67,50,29.98,29.81,14,8,20,0.00
2013-6-19,85.8,70.7,54.6,62.9,56.8,49.9,86,64,39,30.06,29.97,12,4,16,0.00
2013-6-20,89.5,78.1,65.3,68.3,61.6,56.3,83,59,38,30.08,29.99,11,6,19,0.00
2013-6-21,89.1,75.9,67.8,70.3,67.2,63.7,92,76,51,30.08,29.90,28,9,39,0.85
2013-6-22,80.1,73.1,67.0,73.6,69.1,64.0,90,87,81,30.02,29.92,16,8,22,0.00
2013-6-23,84.4,73.5,65.8,74.5,67.0,-99.9,90,82,67,29.99,29.88,17,-2,23,0.00
2013-6-24,86.1,74.5,66.9,77.0,68.9,63.6,90,83,68,30.04,29.88,28,8,33,1.14
2013-6-25,85.7,72.1,68.6,77.1,62.7,-99.9,90,81,72,29.89,29.74,20,-37,27,0.07
2013-6-26,85.0,76.0,67.6,75.8,70.9,64.6,90,85,67,29.79,29.65,22,7,36,0.10
2013-6-27,86.8,78.4,69.8,76.3,70.9,64.1,90,79,61,29.76,29.66,16,8,22,0.01
2013-6-28,81.5,72.7,65.5,68.1,64.2,60.1,91,76,49,29.70,29.57,26,9,45,0.19
2013-6-29,71.7,65.9,60.8,67.2,62.5,57.7,91,89,81,29.70,29.55,14,6,22,0.14
2013-6-30,77.8,67.8,60.7,64.5,58.7,45.6,91,74,46,29.91,29.69,14,8,21,0.00
2013-7-1,76.8,67.5,57.0,57.2,54.5,49.4,88,65,40,29.98,29.89,12,7,21,0.00
2013-7-2,70.0,64.2,58.7,61.4,57.5,55.2,89,79,65,30.01,29.94,11,5,16,0.00
2013-7-3,77.9,64.8,59.1,63.8,59.3,56.4,92,83,56,30.03,29.96,5,2,10,0.00
2013-7-4,81.6,70.6,57.9,66.8,61.5,54.9,91,74,55,30.06,29.97,11,6,17,0.00
2013-7-5,82.7,72.4,59.5,69.6,63.7,56.9,92,76,50,30.04,29.96,9,4,13,0.00
2013-7-6,82.3,73.0,63.5,70.4,66.9,60.8,92,82,59,30.01,29.92,9,3,14,0.00
2013-7-7,87.5,77.2,66.4,74.8,69.5,63.4,90,78,58,29.97,29.89,11,6,19,0.00
2013-7-8,84.6,77.5,72.1,77.0,71.9,68.7,90,83,68,30.00,29.90,14,7,18,0.21
2013-7-9,85.6,78.9,73.9,79.1,74.4,70.5,89,86,77,29.97,29.81,10,4,14,0.07
2013-7-10,84.5,76.8,65.7,75.0,70.4,62.0,90,81,64,29.94,29.76,13,6,21,0.31
2013-7-11,79.3,71.1,59.6,64.6,59.8,55.2,91,69,47,30.03,29.94,10,3,14,0.00
2013-7-12,85.8,70.9,56.1,65.5,57.1,46.9,90,65,33,30.09,30.00,6,1,9,0.00
2013-7-13,81.7,72.2,59.4,66.6,62.6,56.5,90,73,51,30.09,30.01,8,3,12,0.00
2013-7-14,88.3,76.8,63.5,73.4,68.5,60.5,90,77,58,30.12,30.04,10,4,13,0.00
2013-7-15,88.8,79.1,69.2,77.6,72.6,65.9,90,81,65,30.19,30.11,7,2,9,0.00
2013-7-16,90.3,81.7,70.7,76.5,73.0,67.3,89,76,56,30.25,30.18,8,4,12,0.00
2013-7-17,92.8,80.0,69.7,77.7,72.8,66.2,90,80,52,30.26,30.11,6,2,10,0.00
2013-7-18,91.1,81.9,71.8,78.9,74.5,68.4,89,79,61,30.13,29.91,8,4,13,0.00
2013-7-19,91.7,82.6,73.4,78.7,74.1,70.0,89,77,58,29.92,29.73,13,7,21,0.00
2013-7-20,86.2,78.9,71.2,74.8,69.5,63.8,90,74,49,29.86,29.75,8,3,11,0.10
2013-7-21,81.8,72.9,63.8,73.5,68.4,60.8,91,86,69,29.89,29.79,6,2,8,0.05
2013-7-22,86.4,76.3,66.0,73.2,69.2,62.6,91,80,58,29.80,29.70,15,2,23,0.00
2013-7-23,80.2,71.0,61.5,70.7,64.3,57.6,91,80,62,29.90,29.69,18,6,24,0.03
2013-7-24,75.3,66.2,54.4,59.2,55.8,51.8,91,71,51,30.01,29.89,11,4,15,0.00
2013-7-25,79.9,66.8,51.0,63.4,56.5,48.1,91,72,49,30.08,30.00,4,1,10,0.00
2013-7-26,71.9,65.6,60.3,67.7,62.0,57.1,90,88,81,30.01,29.86,11,5,17,0.18
2013-7-27,67.8,60.1,52.3,59.0,53.7,48.9,91,80,59,29.92,29.85,15,7,22,0.00
2013-7-28,71.1,60.2,49.3,56.4,52.0,46.8,91,76,52,30.01,29.89,14,6,23,0.00
2013-7-29,77.1,64.2,48.5,63.1,54.6,45.9,92,73,48,30.12,30.01,7,2,15,0.00
2013-7-30,67.4,65.0,61.0,64.4,61.6,57.0,91,89,84,30.12,29.99,10,4,14,0.41
2013-7-31,73.5,68.9,65.1,69.1,65.6,61.8,92,89,83,30.00,29.92,9,3,13,0.03
2013-8-1,79.5,70.1,60.7,66.4,61.1,55.9,92,75,46,29.98,29.91,14,5,20,0.01
2013-8-2,82.9,72.8,61.0,72.6,66.3,57.7,90,81,60,29.91,29.82,13,7,19,0.80
2013-8-3,78.9,70.7,62.5,66.5,62.3,57.9,90,76,50,30.07,29.89,9,3,13,0.01
2013-8-4,80.6,68.2,54.4,63.2,58.3,51.4,91,73,46,30.13,30.05,5,2,7,0.00
2013-8-5,75.8,67.7,56.6,66.4,61.8,53.7,91,82,62,30.06,29.82,11,3,14,0.13
2013-8-6,84.3,73.3,63.3,74.6,68.5,60.3,91,85,71,29.87,29.77,7,4,10,0.00
2013-8-7,84.0,75.7,69.8,77.9,71.3,66.3,90,87,73,29.86,29.75,11,4,17,0.24
2013-8-8,78.8,71.0,63.6,69.5,64.0,57.7,90,79,66,29.94,29.85,11,5,17,0.01
2013-8-9,81.3,70.0,57.4,69.7,62.5,54.5,90,78,58,30.00,29.92,4,1,7,0.00
2013-8-10,79.9,70.5,61.6,67.4,62.9,57.9,90,78,57,30.08,30.00,7,4,11,0.00
2013-8-11,82.4,69.7,55.0,70.0,61.2,52.1,91,76,54,30.09,29.99,5,2,8,0.00
2013-8-12,76.5,65.8,61.6,68.9,62.3,58.6,90,88,75,30.02,29.92,7,3,9,0.00
2013-8-13,72.3,65.8,55.6,61.3,55.1,50.1,91,70,49,30.10,29.95,10,4,16,0.00
2013-8-14,73.5,61.6,48.6,56.3,52.0,45.8,91,73,48,30.18,30.10,5,1,11,0.00
2013-8-15,77.8,63.1,51.3,61.2,54.6,48.6,91,76,46,30.16,30.06,4,1,7,0.00
2013-8-16,78.5,67.7,57.3,61.3,57.5,52.6,90,72,45,30.13,30.07,7,2,10,0.00
2013-8-17,77.3,66.7,53.7,61.9,56.7,50.8,91,72,51,30.19,30.10,9,3,14,0.00
2013-8-18,83.3,68.2,51.9,67.2,58.8,49.3,91,74,46,30.16,30.04,5,2,9,0.00
2013-8-19,84.0,71.3,57.2,69.3,63.0,54.3,90,77,54,30.08,29.98,5,1,7,0.00
2013-8-20,85.6,73.2,60.9,71.1,65.2,57.5,90,77,55,30.07,29.98,7,3,12,0.00
2013-8-21,87.0,75.1,63.4,72.4,67.0,60.2,90,77,53,30.05,29.94,9,4,13,0.00
2013-8-22,75.8,70.8,67.1,70.1,66.9,63.8,90,87,78,30.09,29.95,16,4,21,0.19
2013-8-23,81.7,70.6,62.3,70.0,64.2,59.1,92,81,59,30.10,30.03,10,4,14,0.01
2013-8-24,86.5,72.2,57.9,70.9,63.8,54.9,90,76,54,30.19,30.10,7,3,13,0.00
2013-8-25,87.5,74.0,61.1,70.2,64.5,57.7,89,74,51,30.21,30.11,9,4,13,0.00
2013-8-26,89.3,76.3,64.0,75.5,69.2,61.0,90,80,59,30.13,29.96,8,4,12,0.00
2013-8-27,90.5,79.6,70.9,77.0,71.6,67.4,89,78,60,29.98,29.84,12,6,16,0.00
2013-8-28,91.3,79.9,71.0,79.5,71.7,66.0,89,77,67,29.95,29.83,11,6,17,0.00
2013-8-29,86.4,74.6,67.7,73.9,69.1,64.2,91,84,62,30.01,29.92,8,3,10,0.00
2013-8-30,95.5,79.7,65.0,78.8,70.1,61.7,90,74,47,29.92,29.72,16,4,26,0.00
2013-8-31,88.1,76.6,66.1,76.6,69.5,62.6,89,79,66,29.77,29.66,11,4,14,0.00
2013-9-1,85.9,75.8,69.7,74.8,69.7,65.2,89,82,64,29.76,29.68,9,2,13,0.00
2013-9-2,81.2,70.3,60.0,66.9,61.9,57.1,90,76,51,29.93,29.75,10,5,15,0.00
2013-9-3,76.5,64.6,52.1,61.0,56.7,49.6,93,77,53,30.05,29.93,6,2,10,0.00
2013-9-4,82.8,67.5,52.1,63.2,57.3,49.3,91,73,42,30.11,30.01,6,3,10,0.00
2013-9-5,83.6,69.9,58.3,69.2,61.5,53.3,90,76,61,30.15,30.07,8,4,12,0.00
2013-9-6,87.3,71.9,56.8,68.0,61.3,52.8,89,71,51,30.15,29.98,9,3,15,0.00
2013-9-7,85.9,73.1,61.9,69.8,64.3,58.9,90,76,50,29.98,29.85,11,4,16,0.01
2013-9-8,85.7,75.9,68.5,72.5,68.9,65.1,89,80,62,29.92,29.84,9,4,13,0.00
2013-9-9,95.7,79.6,67.3,75.9,70.9,63.9,89,76,49,29.88,29.78,12,5,18,0.00
2013-9-10,95.7,80.6,68.5,71.5,68.0,65.0,90,69,39,29.98,29.86,13,6,19,0.00
2013-9-11,94.8,81.5,69.7,70.8,68.5,64.7,90,67,39,30.01,29.92,14,7,20,1.06
2013-9-12,83.1,71.5,56.8,69.4,61.0,48.0,90,73,33,30.01,29.90,16,6,21,0.26
2013-9-13,69.2,58.3,49.9,52.8,48.3,44.3,91,72,43,30.13,30.00,9,4,14,0.00
2013-9-14,73.4,57.3,42.7,49.4,45.0,40.3,92,68,34,30.16,30.01,6,2,8,0.00
2013-9-15,70.1,59.3,49.2,59.7,52.7,44.6,90,79,56,30.10,29.93,13,5,17,0.11
2013-9-16,69.1,59.4,49.5,55.4,52.0,46.7,92,78,51,30.28,30.10,11,5,18,0.00
2013-9-17,74.0,60.4,46.1,58.0,51.7,43.6,92,75,51,30.27,30.06,9,4,13,0.00
2013-9-18,84.7,71.9,60.7,69.3,63.5,55.0,89,75,58,30.06,29.87,13,6,18,0.03
2013-9-19,92.8,80.1,69.8,72.5,69.9,66.4,89,73,48,29.90,29.73,14,9,20,0.00
2013-9-20,79.6,66.9,53.0,71.8,61.1,50.1,90,82,63,29.82,29.75,17,6,17,0.13
2013-9-21,69.5,57.7,48.3,53.3,49.3,45.4,91,76,47,29.91,29.79,11,6,17,0.00
2013-9-22,70.5,56.5,43.2,50.8,47.3,40.9,92,74,45,30.02,29.91,10,3,11,0.00
2013-9-23,74.9,59.0,42.9,51.4,46.3,40.5,91,67,34,30.05,29.95,10,5,15,0.00
2013-9-24,76.7,61.1,46.2,55.3,49.9,43.4,90,70,42,29.99,29.84,12,6,18,0.00
2013-9-25,78.6,63.2,50.6,59.1,53.1,47.6,90,72,48,29.89,29.83,11,5,15,0.00
2013-9-26,81.3,64.2,49.3,56.4,50.6,46.8,92,66,33,30.01,29.89,8,4,12,0.00
2013-9-27,83.1,66.4,50.2,56.4,51.0,46.8,89,62,31,30.10,29.97,11,4,17,0.00
2013-9-28,83.9,70.0,53.0,63.7,57.5,50.0,90,67,43,30.02,29.85,18,8,28,0.00
2013-9-29,70.1,60.3,52.3,63.6,50.9,44.5,92,74,40,30.01,29.89,11,5,15,0.18
2013-9-30,77.0,60.7,43.4,56.8,51.0,40.9,92,74,41,29.97,29.84,10,4,15,0.00
2013-10-1,80.2,68.5,59.0,67.1,62.9,55.3,90,83,62,29.95,29.86,14,8,19,0.00
2013-10-2,82.0,69.1,62.1,68.6,64.1,59.3,92,85,59,30.02,29.91,10,4,13,0.00
2013-10-3,84.4,69.9,63.8,71.5,65.0,60.5,90,85,59,29.92,29.79,17,6,31,0.33
2013-10-4,86.8,73.9,63.6,71.5,66.2,60.3,89,78,52,29.92,29.84,10,6,15,0.00
2013-10-5,82.3,72.2,58.4,71.3,66.5,55.2,90,83,57,29.88,29.71,14,7,19,0.02
2013-10-6,60.1,52.4,44.4,55.1,45.5,39.3,91,79,51,29.78,29.69,17,8,24,0.05
2013-10-7,69.0,54.1,42.0,49.7,45.5,39.6,92,75,46,30.07,29.77,12,6,22,0.00
2013-10-8,78.1,60.1,44.7,52.7,46.7,42.1,91,66,33,30.18,30.07,7,4,16,0.00
2013-10-9,74.7,61.7,48.8,50.5,45.8,42.7,88,59,33,30.20,30.07,9,4,15,0.00
2013-10-10,78.8,62.1,46.3,59.2,51.8,42.6,91,71,46,30.13,29.99,8,3,15,0.00
2013-10-11,79.0,65.8,56.8,61.5,55.8,52.9,88,72,46,30.02,29.88,16,7,22,0.00
2013-10-12,73.8,61.4,47.2,63.8,54.4,41.0,90,79,55,30.16,29.91,15,7,20,0.00
2013-10-13,67.1,53.0,40.1,44.2,37.2,30.6,90,59,26,30.37,30.16,10,4,20,0.00
2013-10-14,68.2,52.4,34.9,45.7,38.3,32.8,93,63,29,30.37,30.08,14,6,21,0.00
2013-10-15,67.3,58.3,48.5,62.7,52.6,42.3,89,82,72,30.08,29.77,17,10,24,0.02
2013-10-16,55.7,50.0,41.9,45.5,43.8,38.9,90,80,68,29.96,29.88,16,8,24,0.00
2013-10-17,58.7,49.1,40.4,46.6,42.1,36.5,91,78,52,29.94,29.83,18,6,28,0.06
2013-10-18,52.7,45.0,37.9,42.7,39.6,35.5,91,82,64,29.99,29.85,15,7,22,0.00
2013-10-19,54.7,47.1,39.9,41.6,38.6,35.0,91,74,49,29.96,29.81,21,11,30,0.06
2013-10-20,69.5,54.0,39.4,45.5,41.8,36.1,88,66,38,29.87,29.72,25,14,33,0.00
2013-10-21,57.2,44.1,28.7,45.7,34.2,22.6,88,69,43,30.00,29.81,21,10,35,0.00
2013-10-22,44.6,34.9,25.8,37.9,30.9,22.0,93,85,64,30.01,29.86,16,6,20,0.68
2013-10-23,44.2,37.2,31.1,36.3,32.5,29.3,93,84,59,30.07,29.93,15,8,21,0.01
2013-10-24,40.5,36.3,30.0,33.8,29.6,25.9,91,77,58,30.33,30.05,19,9,24,0.00
2013-10-25,51.4,38.0,25.0,34.4,28.5,21.8,89,71,42,30.45,30.12,17,9,26,0.00
2013-10-26,55.9,44.5,31.3,39.6,32.6,26.6,84,64,41,30.12,29.91,27,15,35,0.00
2013-10-27,55.7,40.1,26.8,35.7,29.8,23.8,90,69,41,30.09,29.98,13,5,19,0.00
2013-10-28,60.5,45.7,31.8,41.8,33.7,26.8,90,66,35,30.31,30.07,12,5,15,0.00
2013-10-29,56.7,46.1,34.5,48.1,41.3,32.1,91,84,61,30.30,30.09,10,6,13,0.01
2013-10-30,65.3,58.3,50.6,61.7,55.3,47.8,91,89,87,30.09,29.73,23,9,29,2.92
2013-10-31,64.0,57.5,45.1,60.3,54.3,42.3,91,89,88,29.73,29.23,25,15,36,0.46
2013-11-1,50.1,46.8,42.7,45.5,43.6,40.3,91,89,79,29.76,29.48,20,10,26,0.00
2013-11-2,48.3,41.2,34.3,41.4,37.0,31.4,92,85,69,30.14,29.75,20,7,27,0.00
2013-11-3,52.7,40.9,29.1,40.7,34.9,27.1,92,80,55,30.30,30.14,12,5,15,0.00
2013-11-4,57.9,49.5,40.5,46.0,42.1,35.9,86,76,61,30.23,30.09,23,13,34,0.00
2013-11-5,55.3,52.7,50.7,51.8,48.8,45.7,90,87,80,30.25,29.93,21,11,26,0.04
2013-11-6,57.1,46.8,33.2,54.2,43.8,30.0,91,89,84,30.19,29.80,24,16,36,0.54
2013-11-7,46.3,35.4,28.9,39.2,31.3,26.3,91,85,73,30.30,30.18,25,9,32,0.00
2013-11-8,49.3,40.0,27.5,36.8,32.2,25.2,92,75,51,30.35,29.99,20,9,26,0.00
2013-11-9,60.5,49.1,39.9,45.2,39.7,35.3,84,71,50,30.16,29.91,26,17,34,0.00
2013-11-10,48.4,38.9,30.3,35.5,32.1,27.5,90,77,57,30.37,30.16,16,7,22,0.00
2013-11-11,51.2,38.8,24.2,40.5,33.3,20.1,92,81,63,30.50,30.10,25,14,33,0.01
2013-11-12,30.9,23.0,18.1,23.5,18.7,15.1,89,83,70,30.73,30.50,17,8,23,0.00
2013-11-13,38.8,27.7,14.6,27.3,20.9,11.9,90,76,57,30.66,30.22,20,12,25,0.00
2013-11-14,48.8,38.9,30.2,30.9,28.3,22.6,75,66,46,30.22,29.98,19,16,26,0.00
2013-11-15,47.2,41.0,34.7,40.9,34.6,28.3,88,78,62,30.00,29.92,16,8,21,0.01
2013-11-16,61.1,53.7,41.0,56.4,50.1,38.0,90,88,78,29.93,29.56,31,18,39,0.12
2013-11-17,70.5,63.9,43.2,65.4,60.0,38.7,89,87,76,29.82,29.17,39,21,49,0.11
2013-11-18,45.8,39.1,27.3,39.5,32.5,24.5,90,78,57,30.26,29.81,28,14,36,0.00
2013-11-19,42.9,32.4,23.5,33.1,27.7,21.2,92,83,64,30.37,30.25,10,6,15,0.00
2013-11-20,42.6,36.2,28.8,39.1,32.2,26.2,91,85,71,30.27,30.06,16,9,22,0.17
2013-11-21,48.3,45.7,42.1,45.6,42.9,38.9,92,90,86,30.19,30.08,10,5,13,0.19
2013-11-22,43.7,36.0,26.4,41.1,33.2,24.3,92,89,82,30.49,30.17,22,10,30,0.02
2013-11-23,26.4,21.0,12.7,24.3,15.8,8.5,92,80,62,30.74,30.47,22,11,31,0.00
2013-11-24,27.0,16.9,7.7,14.4,9.8,4.4,86,74,45,30.78,30.43,9,4,12,0.00
2013-11-25,31.6,27.6,19.3,25.6,21.1,13.8,85,76,63,30.43,30.13,20,13,26,0.00
2013-11-26,35.2,27.4,16.3,28.4,21.3,8.4,88,78,60,30.19,30.04,24,12,37,0.00
2013-11-27,27.0,17.9,11.5,14.2,10.3,6.2,84,72,56,30.31,30.18,18,10,26,0.00
2013-11-28,36.5,25.2,16.6,21.9,16.9,13.1,87,71,54,30.51,30.21,19,8,22,0.00
2013-11-29,37.3,25.6,12.1,23.4,18.9,9.0,92,77,56,30.64,30.40,9,4,14,0.00
2013-11-30,51.0,36.7,26.5,34.9,29.0,22.2,87,75,53,30.40,30.07,18,9,22,0.00
2013-12-1,46.7,35.5,26.8,34.9,30.3,24.4,92,82,60,30.11,29.96,8,4,11,0.00
2013-12-2,43.4,36.6,29.9,38.2,33.4,27.9,93,88,77,29.96,29.69,15,7,19,0.01
2013-12-3,49.0,43.9,35.7,46.8,41.6,33.3,92,92,91,29.70,29.63,13,8,18,0.00
2013-12-4,56.3,49.2,37.3,53.1,46.5,34.9,92,91,87,29.75,29.47,22,10,29,0.00
2013-12-5,37.3,24.7,19.6,34.4,19.4,12.4,91,80,72,30.29,29.74,22,15,32,0.00
2013-12-6,19.7,16.0,9.2,14.0,10.3,5.3,85,78,69,30.59,30.25,15,10,22,0.00
2013-12-7,20.2,12.0,5.4,8.8,5.5,1.9,86,75,54,30.74,30.57,11,6,16,0.00
2013-12-8,25.3,20.5,7.8,23.3,17.5,3.5,92,88,82,30.59,30.00,19,10,25,0.00
2013-12-9,24.7,16.6,2.2,22.4,11.8,-3.4,91,81,71,30.29,30.00,18,12,26,0.00
2013-12-10,25.0,14.7,-2.0,16.5,7.8,-5.9,86,74,60,30.35,30.11,29,11,35,0.00
2013-12-11,20.9,11.6,-2.1,16.9,6.1,-7.2,89,78,69,30.64,30.32,21,10,27,0.00
2013-12-12,26.8,17.4,-3.2,18.5,11.0,-7.5,85,76,66,30.64,30.25,23,7,29,0.00
2013-12-13,36.6,26.4,13.8,29.7,21.9,10.1,93,83,70,30.25,30.04,13,6,23,0.00
2013-12-14,31.2,27.7,13.0,29.4,25.7,10.5,93,92,89,30.05,29.87,20,11,24,0.00
2013-12-15,18.4,14.4,9.3,16.1,10.9,6.5,92,86,79,30.15,30.02,18,7,26,0.00
2013-12-16,19.0,15.7,11.9,17.0,13.2,9.5,92,90,86,30.16,30.04,12,6,15,0.00
2013-12-17,30.9,22.5,16.7,27.3,19.4,12.7,92,88,79,30.18,30.03,20,11,24,0.00
2013-12-18,38.0,23.8,8.0,33.5,18.7,4.8,89,81,68,30.21,29.87,28,13,35,0.00
2013-12-19,41.6,38.2,36.0,39.3,35.5,33.1,92,90,86,29.91,29.74,20,12,25,0.00
2013-12-20,45.2,37.2,31.0,43.1,35.3,29.5,94,93,91,29.82,29.69,12,6,16,0.15
2013-12-21,33.1,30.8,29.0,31.6,29.0,27.2,94,93,92,29.85,29.52,11,5,16,0.00
2013-12-22,32.9,29.7,22.8,31.4,27.8,20.3,94,93,90,30.18,29.57,18,10,25,0.39
2013-12-23,23.2,13.0,2.4,21.0,9.3,-2.6,91,85,76,30.54,30.17,21,14,29,0.00
2013-12-24,19.2,9.1,-0.6,14.3,4.6,-4.7,85,81,78,30.63,30.39,17,10,22,0.00
2013-12-25,28.7,25.1,19.2,26.4,21.9,14.0,91,88,79,30.39,30.17,18,13,25,0.00
2013-12-26,36.4,28.2,15.6,30.7,23.7,12.9,91,83,72,30.34,30.18,22,11,31,0.00
2013-12-27,45.4,34.3,23.4,36.3,29.7,21.2,92,84,67,30.32,30.13,19,10,21,0.00
2013-12-28,52.4,40.3,32.8,40.4,33.9,29.6,89,79,60,30.14,29.84,20,13,25,0.00
2013-12-29,37.7,27.1,9.7,32.1,24.0,6.4,92,88,81,30.23,29.78,24,17,32,0.00
2013-12-30,15.6,9.3,1.6,10.6,5.2,-2.0,90,83,71,30.37,30.22,18,6,25,0.00
2013-12-31,19.7,13.3,3.1,14.7,9.9,0.3,90,86,77,30.43,30.22,13,6,17,0.00
2014-1-1,21.5,19.2,16.0,18.8,16.5,12.8,91,89,87,30.26,30.13,17,13,22,0.00
2014-1-2,18.2,11.8,1.4,16.0,8.7,-2.6,91,87,83,30.46,30.10,19,13,28,0.00